Flag for U.S.A. Weather past 2 weeks in St. Petersburg, Florida, U.S.A.

Now
83 °F

Clear.


Feels Like: 89 °F
Forecast: 79 / 90 °F
Wind: 8 mph from Southeast

Location: Whitted Airport

Current Time: Aug 31, 2014 at 3:04:38 AM

Latest Report: Aug 31, 2014 at 1:53 AM


Visibility: 10 mi

Pressure: 30.11 "Hg

Humidity: 72%

Dew point: 73 °F

Location of St. PetersburgLocation

Historic Weather in St. Petersburg — Graph

°F

St. Petersburg temperature yesterday

Maximum temperature yesterday: 94 °F (at 4:53 PM)
Minimum temperature yesterday: 77 °F (at 7:04 PM)
Average temperature yesterday: 84 °F

Past Weeks' High & Low Weather Summary

 TemperatureHumidityPressure
High95 °F (Aug 24, 2:53 PM)91% (Aug 17, 8:53 AM)30.12 "Hg (Aug 17, 8:53 AM)
Low77 °F (Aug 30, 7:04 PM)38% (Aug 27, 5:53 PM)29.75 "Hg (Aug 24, 4:53 PM)
Average85 °F71%29.98 "Hg
* Reported Aug 16 1:53 AM — Aug 31 1:53 AM, St. Petersburg, Weather by CustomWeather, © 2014

Note: Actual official high and low records may vary slightly from our data, if they occured in-between our weather recording intervals... More about our weather records

Advertising

St. Petersburg weather history for previous 24 hours

 ConditionsComfort  
Time TempWeatherWind HumidityBarometerVisibility
1:53 AM
Aug 31
83 °FClear.8 mph72%30.11 "Hg10 mi
12:53 AM80 °FClear.3 mph85%30.11 "Hg10 mi
11:53 PM
Aug 30
80 °FPassing clouds.6 mph85%30.12 "Hg10 mi
10:53 PM79 °FClear.No wind88%30.10 "Hg10 mi
9:53 PM80 °FClear.No wind79%30.09 "Hg10 mi
8:53 PM81 °FClear.8 mph77%30.07 "Hg10 mi
7:53 PM78 °FThundershowers. Scattered clouds.9 mph82%30.06 "Hg10 mi
7:04 PM77 °FStrong thunderstorms. Fog.23 mph90%30.09 "Hg0 mi
6:53 PM79 °FThunderstorms. Partly sunny.36 mph84%30.07 "Hg1 mi
5:53 PM92 °FSunny.6 mph58%30.01 "Hg10 mi
4:53 PM94 °FSunny.8 mph52%30.00 "Hg10 mi
3:53 PM93 °FSunny.5 mph54%30.02 "Hg10 mi
2:53 PM92 °FSunny.6 mph58%30.05 "Hg10 mi
1:53 PM91 °FSunny.7 mph60%30.07 "Hg10 mi
12:53 PM91 °FSunny.7 mph60%30.09 "Hg10 mi
11:53 AM89 °FSunny.9 mph63%30.11 "Hg10 mi
10:53 AM86 °FSunny.8 mph72%30.11 "Hg10 mi
9:53 AM84 °FSunny.7 mph77%30.12 "Hg10 mi
8:53 AM82 °FSunny.8 mph79%30.11 "Hg10 mi
7:53 AM81 °FClear.9 mph82%30.11 "Hg10 mi
6:53 AM80 °FClear.12 mph79%30.10 "Hg10 mi
5:53 AM81 °FClear.9 mph74%30.08 "Hg10 mi
4:53 AM81 °FClear.7 mph69%30.07 "Hg10 mi
3:53 AM80 °FPassing clouds.8 mph74%30.08 "Hg10 mi
Weather by CustomWeather, © 2014

See weather overviewHow to use our weather pages